Location: A�t �Alizem
(31.2076°N, 8.7872°W)
Time: 06:17:03
(UTC+00:00)

Envisat - Pass Details

Date: 28 September 2021
Orbit: 764 x 766 km, 98.2° (Epoch: 23 October)

Event Time Altitude Azimuth Distance (km) Brightness Sun altitude
Rises 05:28:57 0° 15° (NNE) 3,232 6.5 -13.2°
Reaches altitude 10° 05:31:17 10° 17° (NNE) 2,303 5.8 -12.7°
Maximum altitude 05:36:20 71° 101° (ESE) 808 3.3 -11.7°
Drops below altitude 10° 05:41:22 10° 186° (S) 2,290 5.4 -10.6°
Sets 05:43:40 0° 188° (S) 3,212 6.1 -10.1°
